星链-31100 (STARLINK-31100 )

导读

STARLINK-31100是美国SpaceX公司星链(Starlink)星座计划中的卫星,于2024年1月3日发射升空。星链项目旨在构建全球卫星互联网,为偏远地区、移动场景及应急场景提供低延迟高速宽带服务。该卫星属于第二代星链卫星,配备先进相控阵天线与激光星间链路,运行在近地轨道,可支持超百Gbps通信容量,助力星链完成全球网络覆盖,目前已正常在轨服役,参与全球卫星互联网组网运营。

Basic Information
目录编号:
58714
目录名称:
STARLINK-31100
国际标识:
2024-002K
轨道中心:
EARTH
卫星名称:
星链-31100
卫星全名:
星链-31100 (STARLINK-31100 )
卫星状态:
在轨 (已飞行897 天)
发射日期:
2024-01-03 UTC
国别 :
美国 (US)
星等 :
--
Orbit Information
数据来源 国际轨道数据 AOE轨道数据
星历时间 2026-06-17T11:31:06+0800
1天前
查看轨道信息
2026-06-14T17:00:00+0800
3天前
查看轨道信息
半长轴 6853.379km 6853.376km
偏心率 0.0001518 0.000123
轨道倾角 53.161° 53.159°
近地点辐角 90.112° 74.187°
升交点赤经 127.895° 140.773°
平近点角 270.005° 129.501°
近地点 474.201km 474.396km
远地点 476.283km 476.082km
周期 94.106分钟 94.106分钟
每日圈数 15.301913 15.301923
Detailed Information
固有亮度:
5
最大亮度:
0.3
卫星平台:
Starlink v2.0 mini
覆盖范围:
全球
运营商:
太空探索技术公司
运营商所在国:
美国
制造商(研发单位):
太空探索技术公司
制造商所在国:
美国
使用方式:
暂无
Satellite Introduction
星链(Starlink)计划是由太空探索技术公司(SpaceX)提出的一个巨型低轨卫星互联网星座项目,计划在2019年至2024年间在太空搭建由约1.2万颗卫星组成的“星链”网络,其中1584颗将部署在地球上空550千米处的近地轨道,并从2020年开始工作。该卫星仍在工作。
2D Orbit Map
3D Orbit Map
Orbit Altitude Analysis Chart
Orbit Inclination Analysis Chart
Orbit Comprehensive Analysis Chart
View Comprehensive Chart